This demonstration page uses our WeatherBlox Daily Observations layout. Learn more.

Left ArrowRight Arrow

Hourly Observations for August 17, 2022

Temp ( °F °C ) Dew Point ( °F °C ) Humidity (%) Winds ( mph kmh ) Pressure ( in mb ) Visibility ( mi km ) Precip ( " mm )
12:53 am 00:53 Clear with Smoke 83 28.3 39 3.9 21 21 NNE 6 9 29.75 1008 10 16 0.00 0.00
1:53 am 01:53 Clear with Smoke 78 25.6 40 4.4 25 25 NNW 5 7 29.76 1008 10 16 0.00 0.00
2:53 am 02:53 Clear with Smoke 78 25.6 41 5 27 27 NNE 6 9 29.76 1008 10 16 0.00 0.00
3:53 am 03:53 Clear with Smoke 75 23.9 42 5.6 31 31 NNW 3 6 29.77 1008 10 16 0.00 0.00
4:53 am 04:53 Clear with Smoke 77 25 43 6.1 30 30 NW 6 9 29.77 1008 10 16 0.00 0.00
5:53 am 05:53 Clear with Smoke 75 23.9 44 6.7 33 33 Calm 29.78 1009 10 16 0.00 0.00
6:53 am 06:53 Sunny with Smoke 76 24.4 47 8.3 36 36 NW 7 11 29.80 1009 6 10 0.00 0.00
7:53 am 07:53 Sunny with Smoke 78 25.6 47 8.3 33 33 Calm 29.82 1010 4 6 0.00 0.00
8:53 am 08:53 Sunny with Smoke 86 30 46 7.8 25 25 W 3 6 29.82 1010 4 6 0.00 0.00
9:53 am 09:53 Sunny with Smoke 92 33.3 43 6.1 18 18 Calm 29.82 1010 4 6 0.00 0.00
10:53 am 10:53 Sunny with Smoke 96 35.6 42 5.6 16 16 Calm 29.82 1010 6 10 0.00 0.00
11:53 am 11:53 Sunny with Smoke 100 37.8 42 5.6 14 14 VRB 5 7 29.80 1009 10 16 0.00 0.00
12:53 pm 12:53 Sunny with Smoke 104 40 37 2.8 10 10 Calm 29.79 1009 10 16 0.00 0.00
1:53 pm 13:53 Sunny with Smoke 105 40.6 37 2.8 10 10 Calm 29.78 1009 10 16 0.00 0.00
2:53 pm 14:53 Sunny with Smoke 107 41.7 36 2.2 9 9 VRB 3 6 29.77 1008 10 16 0.00 0.00
3:53 pm 15:53 Sunny with Smoke 109 42.8 36 2.2 8 8 SSW 10 17 29.75 1007 10 16 0.00 0.00
4:53 pm 16:53 Sunny with Smoke 103 39.4 40 4.4 12 12 SSE 20 31 29.76 1008 10 16 0.00 0.00
5:53 pm 17:53 Sunny with Smoke 101 38.3 37 2.8 11 11 SSE 15 24 29.76 1008 10 16 0.00 0.00
6:53 pm 18:53 Sunny with Smoke 101 38.3 38 3.3 11 11 S 8 13 29.75 1008 10 16 0.00 0.00
7:53 pm 19:53 Sunny with Smoke 98 36.7 40 4.4 14 14 SSW 7 11 29.77 1008 10 16 0.00 0.00
8:53 pm 20:53 Clear with Smoke 95 35 41 5 16 16 WSW 7 11 29.78 1009 10 16 0.00 0.00
9:53 pm 21:53 Clear with Smoke 92 33.3 43 6.1 18 18 Calm 29.80 1009 10 16 0.00 0.00
10:53 pm 22:53 Clear with Smoke 90 32.2 44 6.7 20 20 S 7 11 29.82 1010 10 16 0.00 0.00
11:53 pm 23:53 Clear with Smoke 88 31.1 45 7.2 22 22 NW 5 7 29.83 1010 10 16 0.00 0.00

Powered by AerisWeather